Regional Weather Roundup
Issued by NWS Binghamton, NY

Home | Current Version | Previous Version | Text Only | Print | Product List | Glossary On
Versions: 1 2 3 4 5 6 7 8 9 10 11 12 13 14 15 16 17 18 19 20 21 22 23 24 25 26 27 28 29 30 31 32 33 34 35 36 37 38 39 40 41 42 43 44 45 46 47 48 49 50
000
ASUS41 KBGM 230110
RWRBGM
RWRBGM
BINGHAMTON REGIONAL WEATHER ROUNDUP
NATIONAL WEATHER SERVICE BINGHAMTON NY
900 PM EDT FRI MAY 22 2015

Note: "fair" indicates few or no clouds below 12,000 feet with no
significant weather and/or obstructions to visibility.

* = Station(s) that does not report precipitation, such as rain,
snow, etc, also no thunder or fog.

!NYZ009-015>018-022>025-036-037-044>046-055>057-062-230200
...CENTRAL NEW YORK...

CITY           SKY/WX    TMP DP  RH WIND       PRES   REMARKS
BINGHAMTON     CLEAR     48  30  49 N9        30.14R
CORTLAND       MOCLDY    46  25  42 NW5       30.18R
DANSVILLE      CLEAR     47  29  49 NW6       30.23R
ELMIRA         MOCLDY    51  33  50 N10       30.17R
ITHACA         PTCLDY    46  23  40 N9        30.19R
MONTICELLO     CLEAR     52  32  46 NW10G17   30.10R
NORWICH        PTCLDY    46  25  42 NW3       30.15R
ONEONTA        MOCLDY    46  27  46 NW5       30.11R
PENN YAN       CLEAR     49  25  39 NW8G17    30.20R
ROME           CLEAR     49  24  37 W12       30.13R
SIDNEY         PTCLDY    50  34  53 NW6       30.14R
SYRACUSE       PTCLDY    49  24  37 W16G25    30.15R
$$

!PAZ038>040-043-044-047-048-072-230200
...NORTHEAST PENNSYLVANIA...

CITY           SKY/WX    TMP DP  RH WIND       PRES   REMARKS
HAZLETON       CLEAR     59  27  29 NW13G20   30.14R
SCRANTON       CLEAR     58  34  40 N8        30.11R
$$
&&
KEY
WCI = WIND CHILL INDEX
VSB = VISIBILITY
HX  = HEAT INDEX
$$



USA.gov is the U.S. government's official web portal to all federal, state and local government web resources and services.